CAPE
17 19 26 3 15 20 29 18 4 4 5 3 1 0 0 0 0 0 0 0 0 0 0 0 0 0 0 0 0 0 0 0 0 0 0 0 0 0 0 0 0 0 0 0 0
28 16 30 24 17 16 25 46 30 14 6 4 0 4 0 0 0 0 0 0 0 0 0 0 0 0 0 0 0 0 0 0 0 0 0 0 0 0 0 0 0 0 0 0 0
35 32 23 37 26 24 26 29 24 31 20 13 3 5 11 0 0 0 0 0 0 0 0 0 0 0 0 0 0 0 0 0 0 0 0 0 0 0 0 0 0 0 0 0 0
45 26 10 9 22 23 12 21 42 31 17 21 7 6 4 0 0 0 0 0 0 0 0 0 0 0 0 0 0 0 0 0 0 0 0 0 0 0 0 0 0 0 0 0 0
35 30 17 15 25 33 26 13 14 27 20 5 9 20 1 0 0 0 0 0 0 0 0 0 0 0 0 0 0 0 0 0 0 0 0 0 0 0 0 0 0 0 0 0 0
4 14 13 23 24 28 30 26 22 24 17 17 10 24 2 0 0 0 0 0 0 0 0 0 0 0 0 0 0 0 0 0 0 0 0 0 0 0 0 0 0 0 0 0 0
20 20 18 17 23 32 42 44 38 48 40 38 38 3 10 1 0 0 0 0 0 0 0 0 0 0 0 0 0 0 0 0 0 0 0 0 0 0 0 0 0 0 0 0 0
35 32 43 35 27 27 42 39 21 71 44 42 57 41 4 2 0 0 0 0 0 0 0 0 0 0 0 0 0 0 0 0 0 0 0 0 0 0 0 0 0 0 0 0 0
30 30 31 25 44 44 33 30 55 6 52 65 13 6 0 5 0 0 0 0 0 0 0 0 0 0 0 0 0 0 0 0 0 0 0 0 0 0 0 0 0 0 0 0 0
18 22 30 32 40 30 27 53 49 47 21 68 38 1 0 3 3 0 0 0 0 0 0 0 2 0 0 0 0 0 0 0 0 0 0 0 0 0 0 0 0 0 0 0 0
22 18 20 39 39 47 58 37 24 21 30 0 0 0 0 0 13 1 0 0 0 0 0 0 1 0 0 0 0 0 0 0 0 0 0 0 0 0 0 0 0 0 0 0 0
20 19 28 30 31 29 29 25 11 0 0 3 0 0 0 6 2 0 0 0 2 2 0 1 0 0 0 0 0 0 0 0 0 0 0 0 0 0 0 0 0 0 0 0 0
17 33 34 37 58 31 1 9 1 2 0 0 0 0 0 0 21 11 0 0 1 3 2 0 0 0 0 0 0 0 0 0 0 0 0 0 0 0 0 0 0 0 0 0 0
15 20 28 46 33 7 4 0 5 5 0 0 1 0 0 45 10 11 10 1 11 1 0 1 0 0 0 0 0 0 0 0 0 0 0 0 0 0 0 0 0 0 0 0 0
14 20 34 56 8 7 6 19 21 5 0 0 0 0 0 0 0 0 6 18 11 0 1 0 0 0 0 0 0 0 0 0 0 0 0 0 0 0 0 0 0 0 0 0 0
20 31 32 20 15 1 16 9 0 0 0 0 0 0 0 2 0 6 21 37 30 11 3 0 0 0 0 0 0 0 0 0 0 0 0 0 0 0 0 0 0 0 0 0 0
21 9 26 8 0 1 34 8 1 2 0 0 0 1 0 1 1 17 20 39 5 9 8 2 0 0 0 0 0 0 0 0 0 2 0 0 0 0 0 0 0 0 0 0 0
45 41 14 5 4 13 34 20 2 0 0 0 0 0 2 0 1 4 18 12 1 2 0 1 2 0 0 0 0 0 0 0 0 0 0 0 0 0 0 0 0 0 0 0 0
71 7 0 0 7 34 22 0 0 2 0 0 2 9 1 4 2 3 2 6 7 0 0 0 0 0 0 0 0 0 18 0 0 0 0 0 0 0 0 0 0 0 0 0 0
8 5 0 0 12 39 3 13 0 1 0 9 0 3 1 0 6 8 4 0 12 1 1 2 0 0 0 0 1 0 0 2 4 0 0 0 0 0 0 0 0 0 0 0 0
5 5 0 0 7 10 0 0 0 0 0 0 0 0 0 2 1 1 2 0 0 0 1 2 6 0 0 0 0 0 4 17 6 0 0 0 0 0 0 0 0 0 0 0 0
0 0 0 1 0 0 0 0 0 0 24 12 1 4 0 0 7 0 0 0 0 0 5 1 7 2 0 0 0 0 0 0 9 0 0 0 0 0 0 0 0 0 0 0 0
0 0 1 0 0 0 0 0 0 0 11 5 4 1 0 0 1 0 0 0 0 1 18 0 32 0 2 2 1 0 0 0 4 1 2 0 0 0 0 0 0 0 0 0 0
0 0 0 16 0 0 0 0 0 1 11 8 0 0 0 0 0 0 0 0 0 2 0 17 14 29 0 0 0 0 0 2 0 11 9 6 0 0 0 0 0 0 0 0 0
0 0 0 1 0 0 0 0 0 0 0 0 0 0 0 0 0 0 0 0 0 0 0 0 0 0 0 0 0 0 0 0 0 0 0 0 0 0 0 0 0 0 0 0 0
0 0 0 0 0 0 0 0 0 0 0 1 0 0 0 0 0 0 0 0 0 0 0 0 0 0 0 0 0 0 0 0 0 1 11 0 0 0 0 0 0 0 0 0 0
0 0 0 0 0 0 0 0 0 0 0 0 0 0 0 0 0 0 0 0 0 0 0 0 0 0 0 0 0 0 0 0 0 0 0 0 0 0 0 0 0 0 0 0 0
CIN
-5 -3 -5 -3 -3 -4 -4 -4 -11 -9 -5 -7 -5 -0 -0 -0 -0 -0 -0 -0 -0 -0 -0 -0 -0 -0 -0 -0 -0 -0 -0 -0 -0 -0 -0 -0 -0 -0 -0 -0 -0 -0 -0 -0 -0
-3 -3 -2 -1 -6 -4 -5 -2 -2 -9 -7 -4 -0 -12 -0 -0 -0 -0 -0 -0 -0 -0 -0 -0 -0 -0 -0 -0 -0 -0 -0 -0 -0 -0 -0 -0 -0 -0 -0 -0 -0 -0 -0 -0 -0
-2 -3 -5 -1 -8 -7 -4 -4 -12 -5 -11 -10 -7 -13 -4 -0 -0 -0 -0 -0 -0 -0 -0 -0 -0 -0 -0 -0 -0 -0 -0 -0 -0 -0 -0 -0 -0 -0 -0 -0 -0 -0 -0 -0 -0
-1 -2 -10 -5 -2 -13 -13 -19 -13 -10 -8 -7 -9 -16 -18 -0 -0 -0 -0 -0 -0 -0 -0 -0 -0 -0 -0 -0 -0 -0 -0 -0 -0 -0 -0 -0 -0 -0 -0 -0 -0 -0 -0 -0 -0
-1 -1 -4 -3 -3 -4 -10 -11 -14 -6 -7 -9 -7 -3 -13 -0 -0 -0 -0 -0 -0 -0 -0 -0 -0 -0 -0 -0 -0 -0 -0 -0 -0 -0 -0 -0 -0 -0 -0 -0 -0 -0 -0 -0 -0
-10 -1 -1 -2 -2 -8 -6 -8 -10 -7 -11 -7 -9 -5 -4 -0 -0 -0 -0 -0 -0 -0 -0 -0 -0 -0 -0 -0 -0 -0 -0 -0 -0 -0 -0 -0 -0 -0 -0 -0 -0 -0 -0 -0 -0
-1 -1 -4 -2 -6 -0 -0 -0 -1 -3 -7 -6 -8 -5 -0 -0 -0 -0 -0 -0 -0 -0 -0 -0 -0 -0 -0 -0 -0 -0 -0 -0 -0 -0 -0 -0 -0 -0 -0 -0 -0 -0 -0 -0 -0
-0 -0 -0 -0 -0 -4 -0 -1 -4 -6 -23 -10 -3 -1 -0 -3 -0 -0 -0 -0 -0 -0 -0 -0 -0 -0 -0 -0 -0 -0 -0 -0 -0 -0 -0 -0 -0 -0 -0 -0 -0 -0 -0 -0 -0
-0 -0 -0 -0 -0 -0 -3 -4 -3 -17 -13 -8 -7 -10 -0 -2 -1 -0 -0 -0 -0 -0 -0 -0 -0 -0 -0 -0 -0 -0 -0 -0 -0 -0 -0 -0 -0 -0 -0 -0 -0 -0 -0 -0 -0
-0 -0 -0 -0 -0 -4 -3 -1 -11 -11 -4 -1 -4 -2 -4 -0 -5 -0 -0 -0 -0 -0 -0 -0 -1 -0 -0 -0 -0 -0 -0 -0 -0 -0 -0 -0 -0 -0 -0 -0 -0 -0 -0 -0 -0
-0 -0 -0 -0 -0 -0 -0 -3 -1 -0 -0 -0 -0 -0 -0 -0 -16 -5 -0 -0 -0 -0 -0 -1 -0 -0 -0 -0 -0 -0 -0 -0 -0 -0 -0 -0 -0 -0 -0 -0 -0 -0 -0 -0 -0
-0 -0 -0 -0 -0 -0 -4 -0 -8 -4 -0 -12 -0 -0 -0 -27 -0 -0 -0 -0 -1 -0 -0 -0 -0 -0 -0 -0 -0 -0 -0 -0 -0 -0 -0 -0 -0 -0 -0 -0 -0 -0 -0 -0 -0
-0 -0 -0 -0 -0 -0 -5 -1 -4 -32 -0 -1 -0 -0 -0 -1 -0 -25 -2 -8 -0 -0 -0 -0 -0 -0 -0 -0 -0 -0 -0 -0 -0 -0 -0 -0 -0 -0 -0 -0 -0 -0 -0 -0 -0
-0 -0 -0 -0 -0 -4 -0 -0 -9 -8 -0 -0 -0 -0 -0 -2 -0 -14 -42 -34 -0 -0 -1 -0 -0 -0 -0 -0 -0 -0 -0 -0 -0 -0 -0 -0 -0 -0 -0 -0 -0 -0 -0 -0 -0
-0 -2 -0 -0 -2 -0 -2 -4 -13 -8 -0 -0 -0 -0 -0 -0 -0 -2 -17 -2 -1 -0 -1 -0 -0 -0 -0 -0 -0 -0 -0 -0 -0 -0 -0 -0 -0 -0 -0 -0 -0 -0 -0 -0 -0
-0 -0 -0 -2 -6 -1 -4 -7 -0 -0 -1 -0 -0 -0 -3 -0 -0 -1 -0 -1 -7 -3 -0 -0 -0 -0 -0 -0 -0 -0 -0 -0 -0 -0 -0 -0 -0 -0 -0 -0 -0 -0 -0 -0 -0
-0 -0 -0 -11 -0 -3 -8 -0 -2 -0 -0 -0 -0 -0 -0 -0 -0 -1 -0 -0 -11 -3 -3 -0 -0 -0 -0 -0 -0 -0 -0 -1 -0 -1 -0 -0 -0 -0 -0 -0 -0 -0 -0 -0 -0
-1 -1 -1 -10 -19 -5 -1 -5 -1 -0 -0 -0 -0 -0 -0 -0 -0 -0 -0 -8 -0 -13 -0 -2 -2 -0 -0 -0 -0 -0 -0 -0 -0 -0 -0 -0 -0 -0 -0 -0 -0 -0 -0 -0 -0
-0 -16 -7 -0 -15 -9 -0 -0 -1 -11 -0 -0 -9 -25 -0 -0 -3 -0 -4 -1 -5 -0 -0 -0 -0 -0 -0 -0 -0 -0 -5 -0 -0 -0 -0 -0 -0 -0 -0 -0 -0 -0 -0 -0 -0
-12 -5 -1 -0 -25 -1 -0 -2 -0 -24 -10 -25 -0 -0 -22 -0 -0 -1 -2 -0 -1 -9 -2 -1 -1 -0 -0 -0 -0 -0 -0 -4 -10 -0 -0 -0 -0 -0 -0 -0 -0 -0 -0 -0 -0
-5 -0 -0 -0 -21 -0 -2 -0 -0 -0 -0 -0 -0 -0 -0 -48 -22 -1 -58 -0 -0 -0 -22 -14 -11 -2 -0 -5 -0 -0 -3 -5 -14 -0 -0 -0 -0 -0 -0 -0 -0 -0 -0 -0 -0
-0 -0 -0 -0 -0 -0 -0 -0 -0 -2 -48 -21 -22 -18 -0 -0 -33 -2 -0 -21 -0 -0 -0 -0 -9 -33 -0 -0 -0 -0 -0 -0 -2 -0 -0 -0 -0 -0 -0 -0 -0 -0 -0 -0 -0
-0 -0 -1 -0 -0 -0 -0 -0 -0 -21 -43 -12 -1 -7 -0 -0 -0 -0 -0 -0 -0 -6 -32 -1 -9 -0 -2 -9 -17 -27 -0 -0 -2 -3 -5 -0 -0 -0 -0 -0 -0 -0 -0 -0 -0
-0 -0 -0 -0 -0 -0 -0 -0 -5 -23 -22 -20 -0 -0 -0 -0 -0 -0 -0 -0 -0 -39 -0 -28 -19 -15 -0 -0 -0 -0 -2 -13 -2 -1 -7 -9 -0 -0 -0 -0 -0 -0 -0 -0 -0
-0 -0 -0 -0 -0 -0 -0 -0 -0 -0 -1 -0 -2 -0 -0 -0 -0 -0 -0 -0 -0 -0 -0 -0 -0 -0 -0 -0 -0 -0 -0 -0 -0 -0 -0 -0 -0 -0 -0 -0 -0 -0 -0 -0 -0
-0 -0 -0 -0 -0 -0 -0 -0 -0 -0 -34 -20 -0 -0 -0 -0 -0 -0 -0 -0 -0 -0 -0 -0 -0 -0 -0 -0 -0 -0 -0 -0 -0 -56 -66 -34 -0 -0 -0 -0 -0 -0 -0 -0 -0
-0 -0 -0 -0 -0 -0 -0 -0 -0 -0 -0 -0 -0 -0 -0 -0 -0 -0 -0 -0 -0 -0 -0 -0 -0 -0 -0 -0 -0 -0 -0 -0 -0 -0 -0 -0 -0 -0 -0 -0 -0 -0 -0 -0 -0
Wind_Speed
29 30 30 30 31 29 29 25 24 25 24 25 27 26 28 29 30 29 30 23 22 25 25 24 23 22 20 22 21 21 28 30 25 22 22 19 21 18 18 16 13 15 14 16 5
29 31 32 30 29 30 30 29 27 28 27 27 28 28 29 30 33 33 26 26 27 23 23 24 24 21 24 25 24 25 31 31 27 25 24 22 22 22 20 18 17 17 17 11 3
31 30 31 30 30 30 30 30 30 30 31 30 30 29 29 29 32 26 21 24 26 21 22 22 22 23 27 25 26 28 35 31 29 29 28 27 25 25 24 24 21 18 14 7 3
31 31 32 33 31 30 31 33 34 34 32 31 31 30 28 28 37 21 21 23 18 20 22 24 24 26 29 31 29 35 35 32 30 28 27 28 27 29 26 24 23 20 14 7 5
32 33 33 34 34 35 35 36 37 36 34 32 30 29 30 34 35 26 27 21 19 20 24 24 27 27 31 30 32 37 35 32 36 36 36 34 36 33 32 27 24 22 16 11 10
35 34 34 35 35 36 37 35 35 33 31 30 29 29 32 46 28 28 27 26 25 22 22 24 26 27 30 32 32 31 36 40 35 32 32 36 38 31 30 30 30 25 21 17 15
35 35 36 37 36 36 36 35 32 31 31 31 31 31 40 44 24 21 21 25 26 26 28 24 25 26 28 33 32 34 39 38 37 35 37 33 47 42 33 29 31 27 24 23 23
36 34 34 35 35 36 36 33 32 31 32 32 33 35 48 31 29 33 27 28 27 26 27 26 26 29 29 29 32 35 38 45 35 32 32 30 52 33 34 32 34 35 29 27 27
36 36 35 35 35 35 34 31 31 32 31 32 33 35 52 32 36 32 31 34 30 29 26 26 24 32 31 37 40 38 47 44 43 32 32 34 46 39 37 32 35 39 41 36 35
37 37 37 36 35 35 34 34 32 33 33 30 33 37 41 37 30 29 27 28 31 30 31 30 29 35 39 39 53 47 45 43 43 36 36 42 49 38 33 35 38 39 37 38 40
37 38 37 37 36 36 35 34 38 38 37 39 35 39 36 31 26 29 25 24 28 32 39 33 40 48 47 41 39 40 43 46 43 37 37 46 51 46 44 41 39 38 36 35 36
38 38 38 37 36 34 34 37 35 30 44 39 44 40 40 28 34 32 21 30 32 41 34 37 52 48 39 40 45 44 45 49 42 36 38 45 53 46 44 47 46 42 40 39 37
36 35 35 34 35 36 37 40 33 34 46 47 42 46 39 41 40 35 28 32 37 40 40 46 42 40 40 44 45 49 51 45 43 35 37 44 57 50 44 45 45 44 44 45 44
34 33 31 30 34 33 37 32 32 29 50 48 46 48 39 34 49 36 31 31 39 47 40 45 50 42 41 47 42 54 46 45 45 45 51 35 63 51 42 46 45 43 42 42 39
30 29 28 25 28 29 25 22 24 27 61 38 43 31 36 46 37 40 33 37 44 42 39 47 42 45 47 46 36 46 35 40 43 47 47 50 52 57 43 53 49 43 40 40 40
27 26 25 26 28 28 24 24 26 43 60 39 29 40 40 43 48 33 38 37 37 41 44 50 33 35 42 34 34 30 35 34 37 41 56 62 50 68 53 52 47 44 42 39 37
21 23 22 19 28 20 18 23 42 55 33 41 38 35 43 45 47 45 44 48 46 49 53 50 49 37 30 41 36 35 34 42 45 48 62 47 46 59 37 39 40 39 36 35 33
19 21 21 19 16 14 15 29 51 42 46 34 27 32 46 40 46 49 49 53 46 43 48 53 54 50 37 44 42 41 39 44 54 54 57 35 50 49 41 48 34 27 26 24 24
23 23 20 17 7 12 22 40 43 41 38 45 42 37 39 40 39 46 56 57 50 51 49 48 55 36 41 36 36 41 46 43 42 40 47 45 47 49 45 39 35 38 32 26 19
22 22 21 12 6 11 27 40 35 31 33 34 45 37 39 38 43 41 48 51 51 44 42 42 52 42 41 33 35 39 40 44 44 54 57 49 51 51 39 43 39 36 31 24 19
20 22 19 7 5 18 31 32 34 35 38 42 50 45 36 33 37 40 42 38 42 43 40 41 45 42 34 43 45 43 45 44 42 48 55 59 56 42 45 37 31 29 25 20 17
20 23 13 3 14 19 26 28 29 35 34 44 40 40 41 41 37 36 39 37 30 37 45 43 42 54 47 41 44 44 46 44 50 54 55 54 59 32 35 36 32 28 24 20 17
19 18 12 8 19 17 22 28 31 35 33 38 45 39 33 34 34 34 28 29 25 29 35 38 45 59 54 45 41 46 47 47 47 42 49 53 56 37 35 30 26 24 23 20 17
22 22 17 13 12 11 16 27 27 32 38 37 41 34 36 37 31 28 26 27 27 25 23 27 38 42 54 48 42 47 46 44 46 53 50 49 47 44 39 34 27 23 22 20 18
28 25 15 15 16 11 12 25 29 26 32 33 37 34 34 34 30 26 31 24 23 23 22 27 35 28 28 42 39 41 44 45 47 48 49 48 47 50 39 33 29 24 22 22 21
33 29 22 17 11 13 10 16 27 24 21 33 38 33 30 33 32 30 20 23 21 22 22 24 29 33 38 32 34 39 43 43 44 44 45 44 46 43 35 29 29 28 26 26 24
29 30 22 23 12 10 15 18 15 23 22 27 31 28 31 27 23 24 21 23 20 21 28 30 24 27 39 32 34 43 36 39 40 43 41 44 42 33 32 30 27 26 26 25 24
Wind_Direction
301 300 300 299 297 297 297 295 299 300 302 304 304 301 301 301 299 296 288 288 289 284 286 283 283 279 278 273 274 272 267 265 268 270 275 288 282 291 291 292 299 296 312 308 60
299 299 298 295 296 296 295 293 292 294 294 297 300 300 300 301 296 289 290 288 285 287 281 277 275 274 270 270 269 264 264 266 271 268 275 276 281 283 285 285 288 290 295 313 57
298 300 298 295 295 295 295 293 293 293 292 293 294 296 297 301 292 287 296 294 285 283 280 281 276 272 267 268 264 266 265 267 271 271 271 273 276 278 277 277 279 285 290 292 288
298 297 295 294 293 295 294 292 291 290 292 291 291 292 295 294 277 287 299 299 296 283 279 273 270 266 266 263 265 266 267 267 269 270 271 270 275 273 273 276 281 281 285 272 253
300 297 295 292 291 291 292 290 288 289 290 289 290 290 289 280 275 284 290 295 297 287 273 270 266 265 264 268 266 264 267 268 266 266 268 271 268 271 270 273 277 282 279 269 262
297 296 296 295 293 291 290 291 287 288 289 288 290 288 281 272 285 284 283 282 282 284 284 269 270 268 270 267 265 274 267 265 268 268 268 267 268 270 269 270 271 275 276 272 269
299 296 294 292 292 292 290 289 287 285 288 288 287 285 275 270 286 289 282 281 281 278 274 276 269 269 272 268 271 269 269 269 266 266 266 269 263 262 266 270 269 269 272 273 271
298 298 297 295 292 291 290 287 286 285 286 286 285 283 273 280 272 272 276 280 283 279 276 276 269 268 268 273 273 268 266 263 267 262 268 263 261 271 264 264 264 265 269 270 270
299 298 297 296 295 292 289 287 286 285 287 284 283 278 273 282 266 265 266 270 274 275 275 275 272 261 266 262 265 264 261 261 265 264 264 260 267 268 266 268 266 264 264 266 268
298 297 296 295 294 293 290 286 285 283 284 284 277 277 271 276 272 273 267 264 268 268 266 263 264 259 256 253 255 259 261 264 264 268 262 262 263 270 272 268 267 267 267 267 266
296 296 295 293 292 290 290 287 278 277 269 266 274 263 280 277 274 267 267 260 262 261 255 255 254 251 250 254 263 265 263 264 268 269 267 263 265 266 266 268 268 269 268 268 269
296 296 295 292 290 289 286 276 275 286 277 264 264 266 266 273 268 265 254 255 254 254 255 255 252 256 261 256 257 261 262 262 268 269 267 267 265 268 266 265 264 265 266 268 272
297 296 296 295 291 285 278 276 285 289 276 270 259 260 260 261 264 256 248 254 253 253 249 249 260 258 258 255 254 256 258 262 265 273 270 272 267 266 267 266 266 265 265 267 269
298 297 295 295 292 286 279 283 280 285 274 271 258 263 253 258 258 257 248 250 258 252 252 256 254 261 257 254 253 256 260 261 264 267 264 270 263 265 266 265 264 265 265 266 268
298 297 294 289 292 286 291 298 284 280 269 270 257 271 252 242 260 248 246 252 252 250 249 255 256 252 258 257 255 260 265 263 263 264 267 263 266 263 265 262 263 266 267 267 266
298 298 296 292 288 288 289 294 286 264 263 268 264 252 252 244 245 255 242 248 257 252 251 251 262 256 254 259 254 267 266 266 263 262 260 258 258 260 263 265 267 267 268 270 270
297 300 295 293 287 293 286 281 265 257 271 267 263 255 247 248 243 241 240 237 243 245 248 251 251 259 255 254 255 252 252 257 258 256 258 263 256 258 272 269 268 268 270 273 271
293 298 297 291 287 291 282 268 260 263 259 265 282 256 246 244 246 237 240 242 238 246 251 248 251 247 251 249 254 247 246 254 258 258 261 261 259 261 270 264 275 278 279 280 275
288 291 293 294 279 272 269 261 264 263 264 261 272 263 250 244 252 241 240 241 245 239 249 250 254 260 251 252 245 252 246 249 264 267 263 260 264 266 267 270 269 266 273 276 272
278 283 283 292 269 271 267 264 267 269 269 264 256 268 250 242 243 242 243 243 243 242 245 256 258 256 250 253 249 248 247 249 252 255 258 262 261 260 268 264 264 266 266 262 264
270 276 291 257 262 276 268 273 271 269 267 258 252 261 263 251 242 247 246 251 236 241 242 250 256 259 247 244 244 246 248 251 257 255 258 260 261 265 263 270 268 264 262 255 249
258 265 284 211 270 282 266 271 272 270 265 249 248 256 255 257 252 245 244 245 241 238 238 240 254 253 252 254 253 248 247 246 251 253 256 261 261 274 271 270 265 259 256 252 249
247 264 270 255 275 270 281 276 269 266 259 249 250 253 265 266 269 232 245 253 249 238 242 242 250 253 256 256 256 246 247 248 249 258 255 255 258 267 270 273 267 257 252 247 244
248 253 265 254 282 259 269 273 272 267 257 249 250 250 252 251 262 250 241 247 248 251 251 250 253 256 249 254 249 248 248 248 248 250 255 256 262 261 264 264 263 260 249 242 241
254 254 249 248 207 235 255 275 267 274 252 249 246 245 244 247 251 259 243 242 249 252 253 257 250 256 268 260 265 250 249 245 245 249 252 257 259 261 262 261 259 253 242 238 239
252 250 261 264 250 195 204 259 262 271 264 245 242 249 251 250 252 251 266 245 245 247 250 258 257 259 263 270 272 262 249 247 246 250 255 259 259 263 262 259 256 249 239 237 239
251 251 248 254 248 191 190 200 225 260 270 256 248 253 249 256 265 261 254 263 257 247 248 252 259 264 261 266 276 264 251 251 249 249 251 254 257 259 257 253 248 242 235 233 234